FW5176 Weather Reports


time (UTC)temp
C
wind
direction
speed
KPH
gust
KPH
rain 1hr
cm
rain 24hr
cm
rain mn
cm
humidity
%
barometer
mb
20260507104516 1 359 0.0 1.6 0.00 0.79 0.00 92 1013.6
20260507103018 1 359 0.0 1.6 0.00 0.79 0.00 93 1013.5
20260507101517 1 359 0.0 1.6 0.00 0.79 0.00 94 1013.2
20260507100013 1 359 0.0 0.0 0.00 0.89 0.00 94 1013.3
20260507094510 1 359 0.0 0.0 0.00 0.89 0.00 94 1013.1
20260507093010 1 359 0.0 1.6 0.00 0.89 0.00 94 1013.1
20260507091510 1 359 0.0 1.6 0.00 0.89 0.00 94 1013.1
20260507090008 1 359 0.0 1.6 0.00 0.89 0.00 94 1013.2
20260507084508 1 359 0.0 1.6 0.00 0.89 0.00 95 1013.3
20260507083006 1 359 0.0 1.6 0.00 0.89 0.00 95 1013.3
20260507081508 1 359 0.0 1.6 0.00 0.89 0.00 94 1013.2
20260507080006 1 359 0.0 1.6 0.00 0.91 0.00 94 1013.1
20260507074503 1 359 0.0 1.6 0.00 0.91 0.00 93 1013.1
20260507073001 2 359 0.0 3.2 0.00 0.91 0.00 93 1013.1
20260507071502 2 359 0.0 3.2 0.00 0.91 0.00 93 1013.0
20260507070106 2 359 0.0 3.2 0.00 0.91 0.00 92 1012.9
20260507064558 3 359 0.0 4.8 0.00 0.91 0.00 92 1013.0
20260507063057 3 359 1.6 4.8 0.00 0.91 0.00 92 1013.0
20260507061549 3 359 0.0 4.8 0.00 0.91 0.00 92 1013.0
20260507060056 3 359 0.0 4.8 0.00 0.91 0.00 93 1013.0
20260507054545 3 359 1.6 6.4 0.00 0.91 0.00 93 1013.2
20260507053043 3 359 1.6 4.8 0.00 0.91 0.00 94 1013.1
20260507051549 3 359 0.0 4.8 0.00 0.91 0.00 96 1012.8
20260507050046 4 359 1.6 6.4 0.00 0.91 0.00 97 1012.8
20260507044555 5 359 1.6 4.8 0.00 0.91 0.00 97 1013.1
20260507043056 5 359 0.0 3.2 0.00 0.91 0.00 97 1012.9
20260507041536 5 359 0.0 4.8 0.00 0.91 0.00 97 1012.9
20260507040033 5 359 0.0 4.8 0.00 0.91 0.91 97 1012.7
20260507034535 5 359 0.0 4.8 0.00 0.91 0.91 98 1012.6
20260507033034 5 359 0.0 4.8 0.00 0.91 0.91 98 1012.6
20260507031527 5 359 0.0 4.8 0.00 0.91 0.91 98 1012.3
20260507030026 5 359 0.0 4.8 0.00 0.91 0.91 98 1012.7
20260507024524 5 359 1.6 4.8 0.00 0.91 0.91 99 1012.2
20260507023024 5 359 0.0 3.2 0.00 0.91 0.91 99 1012.3
20260507021530 5 359 0.0 3.2 0.00 0.91 0.91 99 1012.5
20260507020044 5 359 0.0 1.6 0.00 0.91 0.91 99 1012.8
20260507014528 5 359 0.0 1.6 0.00 0.91 0.91 99 1012.3
20260507013028 6 359 0.0 1.6 0.00 0.91 0.91 99 1012.8
20260507011535 6 359 0.0 0.0 0.00 0.91 0.91 99 1012.6
20260507010026 6 359 0.0 1.6 0.00 0.91 0.91 99 1012.5
20260507004521 6 359 0.0 3.2 0.00 0.91 0.91 99 1012.2
20260507003019 6 359 0.0 3.2 0.00 0.91 0.91 99 1012.0
20260507001544 6 359 0.0 4.8 0.00 0.91 0.91 99 1011.8
20260507000020 6 359 1.6 4.8 0.00 0.91 0.91 99 1011.4
20260506234516 6 359 1.6 4.8 0.00 0.91 0.91 99 1011.2
20260506233017 6 359 0.0 4.8 0.00 0.91 0.91 99 1010.9
20260506231518 6 359 1.6 3.2 0.00 0.91 0.91 99 1010.7
20260506230016 6 359 0.0 4.8 0.00 0.91 0.91 99 1010.7
20260506224516 6 359 0.0 4.8 0.00 0.91 0.91 99 1010.6
20260506223019 6 359 1.6 6.4 0.00 0.91 0.91 99 1010.7
20260506221507 6 359 1.6 4.8 0.00 0.91 0.91 99 1010.5
20260506220004 6 359 1.6 6.4 0.00 0.91 0.91 99 1010.2
20260506214502 6 359 3.2 8.0 0.00 0.91 0.91 99 1009.8
20260506213106 6 359 3.2 8.0 0.00 0.91 0.91 99 1009.6
20260506211504 6 359 3.2 9.7 0.00 0.91 0.91 99 1009.3
20260506210006 6 359 3.2 9.7 0.00 1.09 0.91 99 1009.1
20260506204501 6 359 3.2 8.0 0.00 1.09 0.91 99 1009.1
20260506203121 6 359 4.8 9.7 0.00 1.09 0.91 99 1008.9
20260506201557 6 359 4.8 12.9 0.00 1.09 0.91 99 1008.5
20260506200058 6 359 4.8 12.9 0.00 1.09 0.91 98 1008.4
20260506194555 7 359 3.2 8.0 0.00 1.09 0.91 99 1008.3
20260506193104 7 359 4.8 9.7 0.03 1.09 0.91 99 1008.1
20260506191550 7 359 4.8 9.7 0.03 1.09 0.91 99 1008.1
20260506190052 7 359 4.8 14.5 0.03 1.09 0.91 98 1007.8
20260506184550 7 359 6.4 9.7 0.05 1.09 0.91 98 1007.8
20260506183046 7 359 4.8 9.7 0.05 1.07 0.89 98 1007.7
20260506181550 7 359 3.2 6.4 0.05 1.07 0.89 98 1007.4
20260506180042 7 359 3.2 6.4 0.05 1.07 0.89 98 1007.2
20260506174541 7 359 1.6 4.8 0.03 1.04 0.86 98 1006.9
20260506173044 9 359 0.0 4.8 0.00 1.02 0.84 96 1006.9
20260506171537 11 339 0.0 6.4 0.00 1.02 0.84 99 1006.4
20260506170043 11 139 0.0 6.4 0.00 1.02 0.84 99 1006.2
20260506164550 11 115 0.0 6.4 0.00 1.02 0.84 99 1006.2
20260506163040 11 104 0.0 1.6 0.00 1.02 0.84 99 1006.3
20260506161534 11 135 0.0 4.8 0.00 1.02 0.84 99 1006.4
20260506160036 11 100 0.0 6.4 0.00 1.02 0.84 99 1006.3
20260506154533 11 103 0.0 3.2 0.03 1.02 0.84 99 1006.3
20260506153033 11 78 0.0 3.2 0.03 1.02 0.84 99 1006.1
20260506151537 11 108 0.0 4.8 0.03 1.02 0.84 99 1006.0
20260506150037 11 75 0.0 3.2 0.05 1.02 0.84 99 1006.2
20260506144533 11 98 0.0 6.4 0.05 0.99 0.81 99 1006.1
20260506143038 11 116 0.0 6.4 0.08 0.99 0.81 99 1006.3
20260506141543 10 104 0.0 4.8 0.10 0.99 0.81 99 1005.9
20260506140039 11 99 0.0 4.8 0.10 0.97 0.79 98 1005.7
20260506134538 11 100 0.0 4.8 0.13 0.94 0.76 98 1005.8
20260506133049 11 117 1.6 4.8 0.18 0.91 0.71 98 1005.9
20260506131527 11 106 0.0 4.8 0.23 0.89 0.71 98 1005.9
20260506130027 11 110 0.0 3.2 0.25 0.86 0.69 98 1006.1
20260506124527 11 87 0.0 3.2 0.28 0.81 0.64 98 1006.4
20260506123025 11 51 0.0 3.2 0.30 0.76 0.58 98 1006.9
20260506121525 11 21 0.0 3.2 0.25 0.66 0.48 97 1006.9
20260506120046 11 126 0.0 3.2 0.25 0.61 0.43 97 1006.7
20260506114523 11 134 0.0 3.2 0.20 0.56 0.38 97 1006.4
20260506113023 11 116 0.0 3.2 0.13 0.46 0.28 97 1006.4
20260506111522 11 95 0.0 1.6 0.10 0.41 0.23 96 1006.5
20260506110025 11 109 0.0 1.6 0.10 0.38 0.20 96 1006.5